Lone Rock, WI

7:02 PM CDT on September 15, 2019 (GMT -0500)
Tri-County Regional

Weather History for KLNR - August, 2019

Change the Weather History Date:

Monday, August 19, 2019

  Actual Average Record
Temperature  
Mean Temperature 70 °F -  
Max Temperature 82 °F 78 °F 91 °F (2003)
Min Temperature 60 °F 57 °F 44 °F (2004)
Cooling Degree Days 6    
Growing Degree Days 20 (Base 50)    
Moisture  
Dew Point 61 °F    
Average Humidity 87    
Maximum Humidity 100    
Minimum Humidity 45    
Precipitation  
Precipitation 0.00 in - - ()
Sea Level Pressure  
Sea Level Pressure 29.99 in    
Wind  
Wind Speed 1 mph (WSW)    
Max Wind Speed 7 mph    
Max Gust Speed -    
Visibility 6 miles    
Events Fog    
Averages and records for this station are not official NWS values.
T = Trace of Precipitation, MM = Missing Value Source: NWS Daily Summary

Daily Weather History Graph

Daily Weather History Graph

Search for Another Location

Airport or City:

Astronomy

Aug. 19, 2019 Rise Set
Actual Time 6:10 AM CDT 7:57 PM CDT
Civil Twilight 5:39 AM CDT 8:27 PM CDT
Nautical Twilight 5:02 AM CDT 9:04 PM CDT
Astronomical Twilight 4:22 AM CDT 9:44 PM CDT
Moon 10:12 PM CDT (8/19) 9:57 AM CDT (8/19)
Length of Visible Light 14h 47m
Length of Day
13h 47m
Waning Gibbous, 85% of the Moon is Illuminated
Aug 19
Waning Gibbous
Aug 23
Last Quarter
Aug 30
New
Sep 5
First Quarter
Sep 13
Full

Hourly Weather History & Observations

Time (CDT) Temp. Heat Index Dew Point Humidity Pressure Visibility Wind Dir Wind Speed Gust Speed Precip Events Conditions
12:41 AM 63.0 °F - 62.1 °F 97% 29.93 in 9.0 mi Calm Calm - N/A   Partly Cloudy
12:56 AM 63.0 °F - 62.1 °F 97% 29.91 in 5.0 mi Calm Calm - N/A   Scattered Clouds
1:02 AM 63.0 °F - 63.0 °F 100% 29.94 in 2.5 mi Calm Calm - N/A   Mostly Cloudy
1:05 AM 63.0 °F - 63.0 °F 100% 29.94 in 1.0 mi Calm Calm - N/A   Mist
1:08 AM 63.0 °F - 63.0 °F 100% 29.94 in 0.2 mi Calm Calm - N/A Fog Fog
1:56 AM 62.1 °F - 62.1 °F 100% 29.93 in 0.2 mi Calm Calm - N/A Fog Fog
2:56 AM 62.1 °F - 61.0 °F 96% 29.94 in 0.2 mi Calm Calm - N/A Fog Fog
3:37 AM 61.0 °F - 60.1 °F 97% 29.97 in 0.5 mi Calm Calm - N/A Fog Fog
3:45 AM 61.0 °F - 61.0 °F 100% 29.97 in 1.2 mi Calm Calm - N/A   Overcast
3:56 AM 61.0 °F - 61.0 °F 100% 29.95 in 1.2 mi Calm Calm - N/A   Overcast
4:00 AM 61.0 °F - 61.0 °F 100% 29.98 in 3.0 mi West 3.5 mph - N/A   Overcast
4:29 AM 62.1 °F - 61.0 °F 96% 29.98 in 10.0 mi Calm Calm - N/A   Overcast
4:56 AM 61.0 °F - 60.1 °F 97% 29.96 in 10.0 mi Calm Calm - N/A   Mostly Cloudy
5:48 AM 60.1 °F - 59.0 °F 96% 30.00 in 1.8 mi WSW 3.5 mph - N/A   Scattered Clouds
5:52 AM 60.8 °F - 59.0 °F 94% 30.00 in 0.8 mi Calm Calm - N/A   Mist
5:56 AM 60.1 °F - 59.0 °F 96% 29.98 in 0.5 mi SW 3.5 mph - N/A Fog Fog
6:02 AM 60.1 °F - 59.0 °F 96% 30.00 in 0.2 mi Calm Calm - N/A Fog Fog
6:56 AM 60.1 °F - 59.0 °F 96% 30.00 in 0.2 mi Calm Calm - N/A Fog Fog
7:48 AM 61.0 °F - 61.0 °F 100% 30.03 in 0.5 mi Calm Calm - N/A Fog Fog
7:56 AM 61.0 °F - 61.0 °F 100% 30.01 in 0.5 mi Calm Calm - N/A Fog Fog
8:08 AM 62.1 °F - 62.1 °F 100% 30.03 in 1.2 mi Calm Calm - N/A   Overcast
8:17 AM 63.0 °F - 62.1 °F 97% 30.03 in 3.0 mi Calm Calm - N/A   Overcast
8:26 AM 63.0 °F - 62.1 °F 97% 30.03 in 6.0 mi Calm Calm - N/A   Mostly Cloudy
8:46 AM 64.0 °F - 63.0 °F 96% 30.03 in 10.0 mi Calm Calm - N/A   Partly Cloudy
8:56 AM 64.0 °F - 62.1 °F 93% 30.01 in 10.0 mi Calm Calm - N/A   Partly Cloudy
9:56 AM 70.0 °F - 61.0 °F 73% 30.01 in 10.0 mi SE 3.5 mph - N/A   Clear
10:56 AM 73.0 °F - 60.1 °F 64% 30.02 in 10.0 mi East 4.6 mph - N/A   Clear
11:56 AM 75.0 °F - 59.0 °F 57% 30.02 in 10.0 mi Variable 3.5 mph - N/A   Clear
12:56 PM 77.0 °F - 57.0 °F 50% 30.01 in 10.0 mi Variable 3.5 mph - N/A   Clear
1:56 PM 79.0 °F - 57.9 °F 48% 30.00 in 10.0 mi Calm Calm - N/A   Clear
2:56 PM 80.1 °F 80.6 °F 57.9 °F 47% 29.99 in 10.0 mi South 6.9 mph - N/A   Scattered Clouds
3:56 PM 81.0 °F 81.1 °F 57.9 °F 45% 29.98 in 10.0 mi Variable 3.5 mph - N/A   Clear
4:56 PM 81.0 °F 81.3 °F 59.0 °F 47% 29.98 in 10.0 mi NW 5.8 mph - N/A   Clear
6:56 PM 79.0 °F - 63.0 °F 58% 29.96 in 10.0 mi North 3.5 mph - N/A   Clear
7:56 PM 70.0 °F - 64.9 °F 84% 29.98 in 10.0 mi Calm Calm - N/A   Clear
8:56 PM 66.0 °F - 64.0 °F 93% 29.99 in 10.0 mi Calm Calm - N/A   Clear
9:56 PM 64.9 °F - 63.0 °F 93% 29.99 in 10.0 mi Calm Calm - N/A   Clear
10:56 PM 62.1 °F - 61.0 °F 96% 30.01 in 10.0 mi Calm Calm - N/A   Clear
11:56 PM 60.1 °F - 59.0 °F 96% 30.02 in 10.0 mi Calm Calm - N/A   Clear